Probability
0 0 0 0 0 0 0 0 0 0 0 0 0 0 0 0 0 0 0 0 10 23 39 68 84 84 74 77 77 71 68 55 48 45 45 39 32 26 26 26 23 16 10 3 3 3 0 0 0
0 0 0 0 0 0 0 0 0 0 0 0 0 0 0 0 0 0 0 0 10 23 39 42 84 77 74 77 77 71 61 55 48 45 45 35 29 26 26 26 23 10 6 3 0 0 0 0 0
0 0 0 0 0 0 0 0 0 0 0 0 0 0 0 0 0 0 0 0 10 19 29 45 81 74 74 77 77 68 55 48 48 45 42 32 29 26 26 23 13 6 6 0 0 0 0 0 0
0 0 0 0 0 0 0 0 0 0 0 0 0 0 0 0 0 0 0 0 10 19 23 45 77 77 74 74 74 68 58 48 45 42 39 32 29 26 23 23 16 6 0 0 0 0 0 0 0
0 0 0 0 0 0 0 0 0 0 0 0 0 0 0 0 0 0 0 3 10 10 26 39 71 77 77 77 74 65 55 55 52 42 39 32 29 23 26 19 13 0 0 0 0 0 0 0 0
0 0 0 0 0 0 0 0 0 0 0 0 0 0 0 0 0 0 0 3 10 13 23 29 71 74 71 71 68 55 52 52 48 42 32 29 26 26 19 16 10 0 0 0 0 0 0 0 0
0 0 0 0 0 0 0 0 0 0 0 0 0 0 0 0 0 0 0 3 6 13 16 29 52 58 68 61 58 52 52 48 48 42 32 26 26 23 13 6 3 0 0 0 0 0 0 0 0
0 0 0 0 0 0 0 0 0 0 0 0 0 0 0 0 0 0 0 0 6 13 16 23 35 42 42 42 45 45 42 39 35 32 19 19 16 16 10 3 0 0 0 0 0 0 0 0 0
0 0 0 0 0 0 0 0 0 0 0 0 0 0 0 0 0 0 0 0 10 16 16 16 26 26 29 23 23 23 26 29 19 19 13 3 3 0 0 0 0 0 0 0 0 0 0 0 0
0 0 0 0 0 0 0 0 0 0 0 0 0 0 0 0 0 0 0 0 6 10 6 23 19 23 19 26 19 19 19 13 13 10 6 3 3 0 0 0 0 0 0 0 0 0 0 0 0
0 0 0 0 0 0 0 0 0 0 0 0 0 0 0 0 0 0 0 0 3 3 6 10 16 19 16 13 13 16 10 6 6 6 6 3 0 0 0 0 0 0 0 0 0 0 0 0 0
0 0 0 0 0 0 0 0 0 0 0 0 0 0 0 0 0 0 0 0 3 3 3 6 16 19 10 10 6 10 6 6 3 6 6 3 0 0 0 0 0 0 0 0 0 0 0 0 0
0 0 0 0 0 0 0 0 0 0 0 0 0 0 0 0 0 0 0 0 0 3 3 3 13 13 10 3 6 3 0 6 6 3 6 0 0 0 0 0 0 0 0 0 0 0 0 0 0
0 0 0 0 0 0 0 0 0 0 0 0 0 0 0 0 0 0 0 0 0 3 6 3 10 13 10 3 3 0 0 6 6 3 3 0 0 0 0 0 0 0 0 0 0 0 0 0 0
0 0 0 0 0 0 0 0 0 0 0 0 0 0 0 0 0 0 0 0 0 3 6 6 6 10 10 6 6 0 0 0 6 3 3 0 0 0 0 0 0 0 0 0 0 0 0 0 0
0 0 0 0 0 0 0 0 0 0 0 0 0 0 0 0 0 0 0 0 0 3 3 3 6 3 6 13 6 0 0 0 3 3 0 0 0 0 0 0 0 0 0 0 0 0 0 0 0
0 0 0 0 0 0 0 0 0 0 0 0 0 0 0 0 0 0 0 0 0 0 0 0 6 3 3 6 0 0 0 0 0 3 0 0 0 0 0 0 0 0 0 0 0 0 0 0 0
0 0 0 0 0 0 0 0 0 0 0 0 0 0 0 0 0 0 0 0 0 0 0 0 0 3 0 0 0 0 0 0 0 0 0 0 0 0 0 0 0 0 0 0 0 0 0 0 0
0 0 0 0 0 0 0 0 0 0 0 0 0 0 0 0 0 0 0 0 0 0 0 0 0 0 0 0 3 0 0 0 0 0 0 0 0 0 0 0 0 0 0 0 0 0 0 0 0
0 0 0 0 0 0 0 0 0 0 0 0 0 0 0 0 0 0 0 0 0 0 0 0 0 0 0 0 0 0 0 0 0 0 0 0 0 0 0 0 0 0 0 0 0 0 0 0 0
0 0 0 0 0 0 0 0 0 0 0 0 0 0 0 0 0 0 0 0 0 0 0 0 0 0 0 0 0 0 0 0 0 0 0 0 0 0 0 0 0 0 0 0 0 0 0 0 0
0 0 0 0 0 0 0 0 0 0 0 0 0 0 0 0 0 0 0 0 0 0 0 0 0 0 0 0 0 0 0 0 0 0 0 0 0 0 0 0 0 0 0 0 0 0 0 0 0
0 0 0 0 0 0 0 0 0 0 0 0 0 0 0 0 0 0 0 0 0 0 0 0 0 0 0 0 0 0 0 0 0 0 0 0 0 0 0 0 0 0 0 0 0 0 0 0 0
0 0 0 0 0 0 0 0 0 0 0 0 0 0 0 0 0 0 0 0 0 0 0 0 0 0 0 0 0 0 0 0 0 0 0 0 0 0 0 0 0 0 0 0 0 0 0 0 0
0 0 0 0 0 0 0 0 0 0 0 0 0 0 0 0 0 0 0 0 0 0 0 0 0 0 0 0 0 0 0 0 0 0 0 0 0 0 0 0 0 0 0 0 0 0 0 0 0
0 0 0 0 0 0 0 0 0 0 0 0 0 0 0 0 0 0 0 0 0 0 0 0 0 0 0 0 0 0 0 0 0 0 0 0 0 0 0 0 0 0 0 0 0 0 0 0 0
0 0 0 0 0 0 0 0 0 0 0 0 0 0 0 0 0 0 0 0 0 0 0 0 0 0 0 0 0 0 0 0 0 0 0 0 0 0 0 0 0 0 0 0 0 0 0 0 0
0 0 0 0 0 0 0 0 0 0 0 0 0 0 0 0 0 0 0 0 0 0 0 0 0 0 0 0 0 0 0 0 0 0 0 0 0 0 0 0 0 0 0 0 0 0 0 0 0
0 0 0 0 0 0 0 0 0 0 0 0 0 0 0 0 0 0 0 0 0 0 0 0 0 0 0 0 0 0 0 0 0 0 0 0 0 0 0 0 0 0 0 0 0 0 0 0 0
0 0 0 0 0 0 0 0 0 0 0 0 0 0 0 0 0 0 0 0 0 0 0 0 0 0 0 0 0 0 0 0 0 0 0 0 0 0 0 0 0 0 0 0 0 0 0 0 0
Height
5810 5809 5810 5810 5811 5811 5812 5814 5815 5816 5817 5818 5819 5820 5821 5823 5824 5826 5826 5828 5831 5834 5835 5837 5839 5841 5843 5845 5847 5849 5851 5853 5854 5856 5858 5859 5861 5862 5863 5864 5865 5866 5867 5868 5868 5869 5869 5869 5869
5804 5804 5804 5804 5804 5804 5806 5808 5808 5810 5811 5811 5813 5814 5815 5816 5817 5817 5820 5823 5825 5828 5830 5832 5834 5836 5838 5840 5842 5844 5846 5848 5850 5852 5854 5856 5857 5859 5860 5862 5863 5864 5865 5866 5866 5867 5867 5867 5867
5797 5797 5797 5797 5797 5798 5800 5801 5801 5802 5804 5805 5806 5807 5809 5811 5811 5810 5813 5816 5819 5821 5824 5826 5828 5830 5832 5835 5837 5839 5841 5844 5846 5848 5850 5852 5854 5855 5857 5858 5860 5861 5862 5863 5864 5865 5865 5865 5865
5791 5790 5790 5790 5790 5792 5792 5793 5793 5794 5796 5797 5798 5799 5801 5803 5803 5804 5807 5809 5811 5814 5817 5820 5822 5824 5826 5829 5831 5834 5836 5838 5841 5843 5845 5847 5849 5851 5853 5855 5856 5858 5859 5860 5861 5862 5863 5863 5863
5782 5782 5781 5781 5783 5784 5784 5785 5785 5785 5787 5789 5790 5791 5793 5794 5795 5797 5799 5801 5803 5806 5809 5812 5815 5817 5820 5823 5825 5828 5830 5833 5835 5838 5840 5842 5845 5847 5849 5851 5852 5854 5856 5857 5858 5859 5860 5860 5860
5774 5773 5773 5773 5774 5776 5776 5776 5776 5776 5778 5779 5780 5782 5784 5784 5785 5788 5790 5792 5795 5798 5801 5804 5807 5810 5813 5816 5818 5821 5824 5827 5829 5832 5834 5837 5840 5842 5844 5846 5848 5850 5852 5853 5855 5856 5857 5857 5857
5765 5763 5763 5764 5764 5765 5766 5766 5766 5766 5767 5769 5770 5771 5774 5774 5776 5778 5780 5782 5785 5788 5791 5795 5799 5801 5805 5808 5811 5814 5817 5820 5823 5826 5828 5831 5834 5836 5839 5841 5844 5846 5848 5849 5851 5852 5853 5854 5854
5753 5753 5753 5753 5753 5755 5756 5755 5755 5755 5756 5758 5759 5760 5762 5763 5764 5767 5769 5772 5774 5778 5781 5785 5789 5793 5796 5800 5803 5806 5810 5813 5816 5819 5822 5825 5828 5830 5833 5836 5839 5841 5843 5845 5847 5848 5849 5850 5851
5742 5742 5741 5741 5741 5742 5743 5742 5743 5743 5744 5746 5747 5747 5748 5750 5752 5754 5757 5760 5763 5766 5770 5774 5778 5782 5786 5790 5794 5798 5801 5805 5808 5812 5815 5818 5821 5824 5828 5831 5833 5836 5838 5840 5842 5844 5845 5846 5847
5730 5729 5730 5730 5728 5729 5729 5729 5729 5730 5731 5733 5733 5734 5734 5736 5738 5741 5744 5747 5751 5755 5759 5762 5767 5771 5776 5780 5785 5789 5793 5796 5800 5804 5808 5811 5815 5818 5821 5825 5827 5830 5833 5835 5837 5839 5841 5842 5843
5718 5717 5717 5717 5716 5715 5715 5715 5714 5715 5717 5718 5719 5720 5720 5721 5724 5727 5730 5733 5737 5741 5746 5751 5755 5760 5765 5770 5774 5780 5784 5788 5792 5796 5800 5804 5808 5811 5815 5818 5822 5825 5827 5830 5832 5834 5836 5838 5839
5707 5706 5704 5704 5703 5702 5702 5701 5701 5700 5702 5702 5702 5703 5705 5706 5709 5712 5715 5719 5723 5728 5733 5737 5742 5748 5753 5758 5764 5769 5774 5779 5783 5788 5792 5796 5800 5804 5808 5812 5815 5819 5822 5824 5827 5829 5831 5833 5834
5696 5695 5693 5691 5690 5689 5688 5687 5686 5687 5687 5685 5685 5686 5688 5690 5693 5696 5699 5703 5707 5713 5719 5724 5729 5735 5741 5747 5753 5758 5764 5769 5774 5779 5783 5788 5792 5797 5801 5805 5809 5812 5815 5818 5821 5823 5826 5828 5829
5686 5684 5681 5679 5677 5675 5673 5674 5672 5673 5671 5669 5669 5670 5671 5673 5676 5679 5683 5687 5692 5697 5704 5709 5715 5721 5728 5735 5741 5747 5753 5759 5764 5768 5774 5779 5784 5789 5793 5797 5801 5805 5809 5812 5815 5817 5820 5822 5824
5675 5673 5671 5669 5665 5662 5660 5661 5659 5658 5655 5654 5654 5654 5655 5656 5659 5662 5666 5670 5675 5681 5688 5694 5700 5707 5714 5722 5729 5735 5742 5748 5753 5759 5764 5770 5775 5780 5785 5790 5794 5798 5801 5805 5808 5811 5814 5816 5818
5665 5662 5660 5658 5653 5649 5647 5647 5647 5643 5640 5639 5639 5638 5639 5640 5643 5646 5650 5654 5659 5664 5671 5678 5685 5692 5700 5708 5715 5723 5730 5736 5743 5749 5755 5760 5766 5771 5776 5781 5786 5790 5794 5798 5802 5805 5807 5810 5812
5655 5651 5648 5646 5642 5637 5634 5633 5634 5629 5626 5625 5624 5624 5624 5625 5627 5631 5635 5639 5644 5649 5655 5662 5669 5677 5685 5693 5702 5710 5718 5724 5732 5739 5744 5749 5755 5762 5768 5773 5778 5782 5786 5791 5794 5798 5801 5803 5806
5645 5641 5638 5634 5631 5626 5623 5621 5621 5617 5614 5612 5610 5610 5610 5611 5614 5617 5621 5625 5629 5635 5641 5648 5655 5662 5670 5679 5688 5696 5704 5712 5720 5728 5735 5740 5745 5752 5758 5764 5769 5774 5778 5783 5787 5791 5794 5797 5799
5635 5631 5627 5625 5620 5615 5611 5609 5609 5606 5602 5599 5598 5597 5597 5598 5600 5603 5607 5611 5616 5622 5627 5634 5641 5648 5657 5665 5674 5683 5693 5701 5709 5717 5724 5730 5735 5741 5749 5755 5761 5766 5771 5775 5779 5783 5787 5790 5792
5626 5621 5617 5615 5609 5604 5600 5599 5597 5594 5591 5588 5586 5585 5585 5586 5588 5591 5594 5599 5603 5609 5615 5621 5628 5635 5643 5652 5661 5671 5681 5690 5697 5705 5713 5719 5725 5732 5739 5746 5751 5757 5762 5767 5771 5775 5779 5782 5785
5618 5612 5607 5602 5599 5595 5589 5588 5587 5584 5579 5577 5575 5574 5574 5575 5577 5580 5583 5587 5591 5597 5603 5609 5615 5623 5631 5639 5648 5658 5668 5677 5685 5694 5702 5709 5716 5723 5730 5737 5742 5748 5753 5758 5763 5768 5772 5775 5778
5609 5604 5598 5593 5588 5585 5580 5572 5579 5574 5570 5567 5566 5564 5564 5565 5566 5568 5571 5575 5579 5585 5590 5596 5602 5610 5618 5627 5636 5645 5656 5666 5676 5685 5692 5698 5705 5713 5720 5727 5733 5739 5745 5750 5755 5760 5764 5767 5770
5600 5595 5590 5585 5579 5576 5573 5563 5567 5565 5561 5559 5557 5556 5555 5556 5556 5558 5561 5564 5568 5573 5578 5584 5590 5598 5606 5615 5624 5634 5644 5654 5664 5672 5680 5688 5695 5703 5711 5718 5724 5730 5736 5742 5747 5752 5756 5760 5763
5591 5586 5582 5577 5571 5568 5566 5558 5556 5555 5553 5550 5549 5548 5547 5547 5547 5548 5550 5554 5558 5562 5567 5572 5580 5588 5596 5604 5613 5623 5633 5643 5652 5661 5670 5678 5685 5693 5701 5708 5715 5721 5727 5733 5739 5743 5748 5752 5755
5584 5578 5572 5566 5562 5560 5557 5551 5550 5547 5544 5542 5541 5540 5538 5538 5538 5539 5541 5544 5548 5552 5557 5562 5569 5578 5586 5594 5603 5613 5623 5632 5641 5652 5660 5668 5675 5683 5691 5699 5706 5713 5719 5725 5730 5735 5740 5744 5748
5576 5570 5565 5558 5553 5550 5549 5546 5545 5540 5536 5534 5532 5531 5530 5530 5530 5530 5532 5534 5538 5542 5548 5553 5560 5568 5576 5585 5594 5603 5613 5622 5632 5642 5651 5659 5667 5674 5682 5689 5696 5703 5710 5716 5722 5727 5731 5736 5740
5567 5562 5557 5550 5544 5540 5539 5538 5537 5532 5528 5526 5524 5522 5522 5522 5522 5522 5523 5526 5529 5533 5538 5544 5551 5559 5567 5576 5584 5593 5603 5613 5623 5632 5641 5650 5658 5665 5673 5680 5687 5694 5701 5707 5713 5719 5723 5728 5732
5560 5555 5549 5543 5536 5531 5530 5530 5528 5524 5521 5519 5517 5516 5514 5514 5514 5515 5516 5518 5521 5525 5529 5535 5542 5550 5558 5567 5575 5585 5594 5604 5613 5622 5631 5640 5648 5656 5664 5671 5679 5686 5692 5699 5705 5710 5715 5719 5723
5552 5548 5541 5535 5530 5524 5519 5524 5521 5517 5513 5511 5510 5508 5508 5507 5506 5507 5509 5511 5514 5517 5522 5527 5534 5542 5549 5557 5566 5576 5585 5595 5604 5613 5622 5631 5640 5647 5655 5663 5670 5677 5684 5690 5696 5702 5706 5711 5715
5543 5539 5533 5528 5523 5517 5511 5514 5514 5509 5505 5503 5502 5501 5500 5499 5499 5500 5501 5503 5507 5510 5515 5520 5526 5533 5540 5548 5557 5567 5576 5585 5594 5604 5613 5622 5631 5639 5647 5654 5662 5668 5675 5681 5687 5693 5698 5703 5707
Wind_Speed
25 26 27 28 28 28 27 27 27 27 28 28 28 29 30 30 31 33 32 30 29 29 29 30 30 30 30 30 29 28 28 27 27 26 25 24 22 21 21 19 19 18 17 15 14 14 13 12 12
28 28 30 30 31 31 29 29 30 30 30 31 31 32 32 32 33 35 33 32 31 31 32 32 32 32 32 32 31 31 30 29 29 28 27 26 25 24 23 22 21 20 19 17 16 15 15 14 13
31 32 33 33 33 33 32 32 33 33 33 33 34 34 35 35 36 38 36 34 34 34 34 35 35 35 34 34 33 33 33 32 31 30 29 28 27 26 25 24 23 22 21 19 18 17 16 15 15
34 35 36 36 35 35 35 35 36 36 36 36 37 37 37 38 39 40 38 37 37 37 36 37 37 37 37 36 35 35 35 34 33 32 31 30 29 28 27 26 25 24 22 21 20 19 18 17 16
36 38 39 39 38 38 38 39 40 40 40 39 40 40 40 41 42 42 41 40 40 39 39 39 40 40 39 38 37 37 37 36 35 34 33 32 31 30 29 28 27 26 24 23 22 21 20 19 18
39 40 41 41 41 41 41 42 43 44 44 43 43 43 43 44 45 44 43 44 43 42 42 42 42 42 41 41 40 39 39 38 38 36 36 34 33 32 31 30 29 28 26 25 24 23 21 21 20
41 42 43 43 43 43 43 44 46 46 47 46 46 46 45 47 47 46 46 46 46 45 45 45 44 44 44 43 42 42 41 40 39 39 38 37 36 34 33 32 31 30 28 27 25 24 23 22 21
42 43 44 45 46 45 45 46 47 48 49 48 48 48 48 49 49 49 49 48 48 47 47 47 47 46 46 45 45 44 43 43 42 41 40 39 38 37 35 34 33 32 30 28 27 26 25 23 23
42 44 45 46 47 46 46 48 48 49 50 50 50 50 51 52 52 51 51 51 50 49 49 49 48 48 48 48 47 46 46 45 44 43 42 41 40 39 37 36 35 33 32 30 29 27 26 25 24
43 45 45 46 47 47 46 48 49 50 51 51 52 52 53 54 54 53 53 53 52 52 51 51 50 50 50 50 49 48 48 47 46 45 44 43 42 40 39 38 36 35 33 32 30 29 27 26 25
44 44 44 44 46 47 48 49 51 52 52 53 53 53 55 55 54 54 55 55 55 54 53 53 53 52 52 51 51 50 50 49 48 47 46 45 43 42 41 39 37 36 35 33 31 30 29 27 26
43 43 43 43 44 46 47 49 51 52 52 54 54 54 55 56 56 56 56 57 57 56 55 55 55 54 54 53 52 51 51 51 50 49 48 47 45 44 42 40 39 37 36 34 33 31 30 29 27
41 41 43 44 45 46 48 49 51 51 52 54 55 55 55 55 56 56 57 58 58 58 57 57 57 56 55 55 54 53 53 52 51 50 50 48 47 45 44 42 41 39 37 36 34 32 31 30 28
39 41 42 43 45 46 48 49 51 50 51 52 54 54 54 55 56 56 57 58 59 59 58 59 59 58 57 56 56 55 54 53 52 51 51 50 48 47 45 44 42 41 39 37 35 34 32 31 30
40 41 42 42 44 46 48 48 48 48 50 51 52 52 52 53 54 55 56 57 58 59 59 59 59 59 59 58 57 57 56 54 54 53 52 52 50 48 47 45 43 42 40 38 37 35 33 32 30
40 42 42 42 44 45 47 47 46 47 49 50 51 51 51 51 52 53 54 55 57 58 59 59 60 60 60 60 59 59 58 56 55 53 53 53 52 49 47 46 44 43 42 40 38 36 35 33 31
42 43 43 43 44 45 47 46 44 46 48 48 49 49 50 49 49 51 52 53 53 55 57 58 58 60 61 61 61 60 59 58 55 54 53 53 52 50 49 47 45 44 43 41 39 37 36 34 32
43 44 44 44 44 46 47 47 45 44 45 46 47 47 47 47 47 48 50 51 51 52 54 57 58 60 61 62 62 61 61 59 56 56 55 54 53 52 51 48 46 45 44 42 40 39 37 35 33
44 44 44 44 43 46 47 47 45 44 44 43 44 44 44 44 44 46 48 50 49 50 53 54 57 59 61 62 63 62 61 59 56 56 55 54 54 52 51 49 47 46 44 43 41 40 39 37 35
45 45 45 45 44 45 46 45 44 42 42 42 41 40 41 41 42 44 47 49 49 49 52 52 55 58 61 62 62 62 61 60 57 56 55 53 53 51 50 50 48 46 45 43 41 40 39 38 37
44 44 46 46 45 44 46 45 41 40 39 39 39 38 38 40 40 40 43 46 47 48 50 52 54 56 59 62 64 63 61 60 58 55 55 55 53 52 50 50 49 47 46 44 42 40 39 38 37
43 43 45 45 45 44 44 47 40 38 38 37 36 36 36 37 39 41 41 44 46 47 49 52 54 55 58 61 63 63 62 60 58 56 54 53 54 52 51 51 49 48 47 45 43 41 39 39 38
44 44 44 45 44 44 41 44 40 37 36 34 33 34 35 35 37 39 41 42 45 46 49 51 53 54 56 59 63 63 61 60 59 56 54 54 55 53 52 51 50 49 48 46 45 43 41 39 39
44 44 44 44 43 43 38 41 41 36 35 34 33 33 34 35 36 38 39 41 43 44 47 49 51 53 55 57 62 62 62 60 60 57 55 55 56 54 53 51 50 49 48 47 46 45 42 40 39
43 44 44 44 43 41 38 39 39 37 36 34 33 33 32 33 34 35 36 38 40 43 45 47 50 51 54 56 59 60 61 60 59 58 56 54 54 54 52 51 50 49 48 48 46 45 44 41 39
42 42 42 44 44 43 39 38 36 35 34 33 32 31 31 31 32 33 34 35 37 40 43 46 50 51 53 56 59 60 61 59 58 57 55 53 52 52 52 51 50 49 47 47 46 45 43 42 41
41 41 41 43 45 44 40 37 35 33 32 31 30 29 30 30 30 31 32 33 34 37 40 44 49 51 52 55 58 59 59 59 57 55 53 51 50 50 51 51 49 50 48 47 46 44 43 43 42
41 41 41 41 43 43 41 37 34 32 30 30 29 28 29 30 30 30 31 32 33 35 39 42 47 50 52 54 57 56 57 58 58 56 54 52 49 49 50 50 51 50 48 47 46 45 43 42 41
42 41 41 41 41 41 42 36 32 32 31 31 29 28 28 28 28 29 30 31 32 35 39 41 44 48 51 54 56 55 55 57 57 56 54 53 50 48 48 49 49 48 47 47 46 44 43 42 41
42 40 40 41 41 41 43 40 32 31 31 31 30 29 28 28 28 28 29 32 33 34 38 41 43 46 50 52 55 55 55 57 56 53 53 52 51 50 49 48 47 46 45 45 44 43 42 41 40
Wind_Direction
279 277 275 274 273 272 273 271 268 266 266 264 263 261 260 259 258 258 257 256 253 249 246 245 244 243 242 241 240 238 237 236 235 234 235 235 236 238 239 241 242 244 247 248 249 252 257 264 271
278 277 275 274 274 274 274 272 269 268 267 265 263 262 262 260 259 260 259 257 254 251 248 246 244 243 243 241 240 239 237 236 235 235 236 236 237 238 239 241 242 244 246 248 249 252 256 263 269
278 276 275 275 275 276 275 274 273 270 268 267 265 264 263 261 260 260 260 259 256 252 249 247 246 244 243 242 241 240 238 237 236 236 236 237 238 239 240 241 242 244 246 248 248 251 255 261 268
278 276 275 275 276 276 274 273 273 271 269 268 267 265 264 261 260 261 261 259 257 254 251 248 247 245 244 242 241 240 239 237 237 237 237 238 238 239 240 241 242 244 247 248 249 251 255 259 266
277 276 275 275 275 274 273 272 271 270 269 268 267 266 265 263 261 260 260 258 256 255 252 248 247 246 244 243 241 240 239 238 237 237 238 238 238 239 239 240 242 244 247 248 249 250 254 259 264
278 276 276 276 276 275 273 272 270 269 268 268 267 266 265 264 262 260 259 258 256 254 252 249 246 245 244 243 242 240 239 238 238 237 238 239 239 239 239 240 241 243 246 248 248 249 253 258 262
278 277 277 277 276 274 273 272 271 270 269 268 267 266 265 263 263 262 260 258 257 254 252 249 246 245 244 243 242 240 239 239 238 237 237 238 239 239 240 240 241 243 245 247 247 249 253 258 261
279 278 278 277 276 274 272 270 270 270 269 268 267 266 265 263 263 261 259 258 256 254 252 249 246 244 244 243 242 240 239 238 238 238 238 238 239 240 240 240 241 242 245 246 247 248 252 257 260
281 279 279 277 275 274 272 270 269 268 268 267 266 266 265 263 263 261 259 257 255 253 251 249 246 243 242 241 241 239 238 238 238 238 238 239 239 240 240 241 241 242 244 245 246 248 251 255 259
282 280 280 278 276 274 273 272 270 268 268 267 266 266 265 263 262 261 259 257 255 252 250 247 246 243 241 240 239 238 238 237 238 238 238 239 240 240 240 240 241 242 244 245 246 248 251 254 258
285 283 282 279 278 276 275 273 271 269 269 268 267 265 264 262 261 260 258 256 254 252 249 246 244 242 240 239 239 238 238 237 237 238 238 239 239 240 240 240 240 242 243 244 245 247 250 253 256
288 286 283 280 279 278 277 276 274 272 271 269 267 266 263 262 260 259 257 255 253 250 248 245 243 241 239 237 237 237 237 237 237 237 237 238 239 239 240 240 240 241 242 242 244 246 249 252 255
291 288 285 283 282 280 278 277 277 275 273 271 268 266 263 261 260 258 256 253 251 248 246 244 242 240 239 237 235 235 235 236 236 237 237 237 238 239 239 239 240 241 241 242 243 245 248 250 253
293 292 289 285 283 283 282 281 279 278 275 273 271 268 265 261 260 258 255 253 250 247 244 243 241 239 238 236 235 234 234 234 235 235 237 237 237 238 238 239 239 240 241 241 242 244 246 249 251
295 294 291 288 286 285 284 282 281 280 277 276 274 270 267 264 260 257 254 252 249 247 243 241 239 237 236 235 234 233 233 234 234 234 235 236 236 237 238 238 239 239 240 240 242 243 245 248 251
298 296 294 292 289 287 287 286 285 282 280 279 276 272 270 265 260 257 253 251 248 246 242 239 237 235 234 233 232 231 231 232 233 233 234 235 235 236 237 237 238 239 239 240 241 243 244 246 250
301 299 298 295 294 291 289 289 289 287 284 282 278 273 270 266 260 255 252 250 247 244 241 237 235 233 232 230 230 229 230 230 232 232 232 233 233 234 235 236 237 238 239 240 241 243 244 246 249
305 303 301 300 297 293 292 292 291 290 287 285 280 274 270 266 260 254 250 248 246 243 240 237 234 231 230 229 228 228 228 229 230 230 230 232 233 233 233 234 236 237 238 240 241 243 244 245 248
307 305 303 302 299 296 296 295 294 291 288 286 281 275 270 265 259 253 249 246 244 242 239 236 234 230 228 227 227 227 226 227 228 228 229 231 232 231 231 233 235 237 239 240 241 242 244 246 248
309 306 305 303 301 300 299 297 296 293 289 286 281 276 270 263 258 253 249 245 242 240 238 235 233 230 228 227 226 225 225 225 226 228 228 230 230 230 231 232 233 236 238 239 239 241 243 246 248
309 307 307 306 303 301 301 298 297 294 290 286 281 275 270 264 259 255 250 245 243 241 238 234 233 230 227 226 225 224 223 225 225 227 228 229 230 229 230 232 232 235 237 238 238 240 243 245 248
311 310 309 308 305 304 305 303 300 297 292 287 282 276 270 266 261 256 250 246 243 241 238 235 232 229 227 225 224 223 222 224 224 224 227 229 229 229 231 231 232 235 236 237 238 240 242 245 248
311 310 309 308 306 305 307 304 305 300 296 291 285 278 273 268 264 259 253 247 244 241 238 234 231 228 227 224 223 221 220 223 223 223 226 227 228 229 230 232 232 234 235 237 238 240 242 245 248
311 310 309 309 307 307 309 306 307 303 298 293 287 278 273 268 264 261 255 249 244 240 237 232 230 227 225 223 222 219 220 221 222 222 225 228 228 228 229 231 231 232 234 237 238 240 242 245 248
310 312 311 311 310 309 309 308 310 305 298 293 290 284 275 270 265 261 256 250 244 238 235 232 228 226 224 222 220 219 219 220 221 222 224 226 227 227 227 230 231 231 233 236 238 240 242 245 248
310 310 310 310 310 308 307 307 310 304 299 294 292 284 277 271 266 261 255 247 243 238 234 231 227 224 223 221 220 220 220 220 221 222 224 226 226 226 227 229 231 231 234 235 237 239 241 245 249
309 309 308 307 308 307 307 307 307 305 299 295 292 285 276 271 266 259 254 249 242 237 233 229 225 223 222 220 220 220 221 221 221 221 222 225 225 226 228 228 229 231 233 235 236 238 241 245 248
307 307 307 307 307 306 306 308 309 304 298 293 289 285 277 271 266 260 256 249 242 236 232 227 224 223 221 220 219 219 221 221 221 221 223 223 225 226 227 227 229 231 233 236 236 238 241 245 248
307 306 305 303 303 303 303 305 306 303 298 293 287 283 277 271 267 260 254 248 243 235 230 226 224 222 221 220 219 218 220 219 219 220 221 222 224 225 226 226 227 230 232 235 236 238 240 244 247
306 305 303 302 302 300 299 304 304 298 294 291 287 282 277 271 267 261 255 246 240 235 230 227 225 223 222 221 219 218 219 219 219 220 220 222 224 225 225 226 227 230 233 234 236 238 240 243 247